Location: Newark
(41.6500°N, 71.4833°W)
Time: 06:28:52
(UTC+00:00)

Courier 1B Rocket - All Passes

Search period start: 20 January 2020 00:00
Search period end: 30 January 2020 00:00
Orbit: 920 x 1202 km, 28.2° (Epoch: 19 January)

Date Brightness Start Highest point End Pass type
(mag) Time Alt. Az. Time Alt. Az. Time Alt. Az.
20 Jan - 17:33:01 10° SSW 17:36:37 15° SSE 17:40:07 10° SE daylight
20 Jan - 19:24:07 10° SW 19:29:06 23° S 19:33:55 10° SE daylight
20 Jan - 21:16:57 10° WSW 21:21:36 21° S 21:26:10 10° SE daylight
20 Jan - 23:12:03 10° SW 23:13:55 11° SSW 23:15:47 10° S visible
21 Jan - 16:33:34 10° S 16:35:52 12° SSE 16:38:09 10° SE daylight
21 Jan - 18:23:27 10° SW 18:28:21 22° S 18:33:04 10° ESE daylight
21 Jan - 20:15:54 10° SW 20:20:53 23° S 20:25:42 10° SE daylight
21 Jan - 22:09:51 10° SW 22:13:16 15° SSW 22:16:39 10° SSE visible
22 Jan - 17:22:55 10° SSW 17:27:35 19° SSE 17:32:03 10° ESE daylight
22 Jan - 19:14:56 10° SW 19:20:08 24° S 19:25:08 10° SE daylight
22 Jan - 21:08:20 10° WSW 21:12:36 19° SSW 21:16:47 10° SSE daylight
23 Jan - 16:22:39 10° SSW 16:26:48 16° SSE 16:30:47 10° SE daylight
23 Jan - 18:14:02 10° SW 18:19:21 24° S 18:24:26 10° SE daylight
23 Jan - 20:07:03 10° WSW 20:11:54 22° S 20:16:34 10° SE daylight
23 Jan - 22:02:24 10° SW 22:04:12 11° SSW 22:06:00 10° S daylight
24 Jan - 15:22:54 10° S 15:26:00 13° SSE 15:29:02 10° SE daylight
24 Jan - 17:13:15 10° SW 17:18:33 23° S 17:23:36 10° ESE daylight
24 Jan - 19:05:53 10° WSW 19:11:09 24° S 19:16:11 10° SE daylight
24 Jan - 21:00:00 10° SW 21:03:33 15° SSW 21:07:03 10° SSE daylight
25 Jan - 16:12:37 10° SSW 16:17:44 21° SSE 16:22:36 10° ESE daylight
25 Jan - 18:04:49 10° SW 18:10:22 26° S 18:15:38 10° SE daylight
25 Jan - 19:58:21 10° WSW 20:02:52 19° SSW 20:07:14 10° SSE daylight
26 Jan - 15:12:14 10° SSW 15:16:53 18° SSE 15:21:22 10° ESE daylight
26 Jan - 17:03:49 10° SW 17:09:32 26° S 17:14:56 10° ESE daylight
26 Jan - 18:56:58 10° WSW 19:02:08 23° S 19:07:04 10° SE daylight
26 Jan - 20:52:24 10° SW 20:54:28 12° SSW 20:56:30 10° S daylight
27 Jan - 14:12:19 10° S 14:16:02 14° SSE 14:19:40 10° SE daylight
27 Jan - 16:02:57 10° SW 16:08:40 25° S 16:14:06 10° ESE daylight
27 Jan - 17:55:43 10° WSW 18:01:20 26° S 18:06:40 10° SE daylight
27 Jan - 19:49:56 10° SW 19:53:48 16° SSW 19:57:32 10° SSE daylight
28 Jan - 13:13:41 10° SSE 13:15:12 11° SSE 13:16:41 10° SE daylight
28 Jan - 15:02:15 10° SW 15:07:47 22° SSE 15:13:04 10° ESE daylight
28 Jan - 16:54:34 10° SW 17:00:30 27° S 17:06:06 10° SE daylight
28 Jan - 18:48:13 10° WSW 18:53:05 20° SSW 18:57:44 10° SSE daylight
29 Jan - 14:01:49 10° SSW 14:06:53 19° SSE 14:11:47 10° ESE daylight
29 Jan - 15:53:31 10° SW 15:59:36 27° S 16:05:22 10° ESE daylight
29 Jan - 17:46:45 10° WSW 17:52:17 24° SSW 17:57:33 10° SE daylight
29 Jan - 19:42:08 10° SW 19:44:40 12° SSW 19:47:09 10° S daylight
